Location: Dilsberg
(49.3983°N, 8.8354°E)
Time: 15:16:31
(UTC+00:00)

Daily predictions for brighter satellites

Satellite Brightness Start Highest point End
(mag) Time Altitude Azimuth Time Altitude Azimuth Time Altitude Azimuth
SL-16 R/B 3.6 17:13:03 10° N 17:19:00 49° WNW 17:24:56 10° SW
Cosmos 2237 Rocket 2.9 17:14:24 10° NW 17:20:01 62° WSW 17:25:37 10° SSE
Cosmos 773 Rocket 4.0 17:18:29 10° S 17:23:42 67° ESE 17:28:58 10° NNE
Cosmos 1570 Rocket 4.0 17:20:04 10° SSW 17:25:20 85° ESE 17:30:37 10° NNE
YAOGAN 1 2.6 17:23:25 10° SSE 17:27:36 58° ENE 17:31:47 10° N
Cosmos 2344 4.1 17:20:54 10° S 17:28:02 37° ESE 17:34:31 10° NE
Cosmos 1455 Rocket 3.0 17:27:48 10° N 17:32:07 88° E 17:36:26 10° S
Cosmos 1975 Rocket 3.2 17:32:49 10° SSE 17:36:58 48° E 17:41:08 10° NNE
Cosmos 2084 4.3 17:36:38 10° S 17:40:19 30° ESE 17:43:48 11° ENE
Meteor 1-31 Rocket 4.4 17:39:42 12° ENE 17:40:19 12° ENE 17:41:47 10° NE
SPOT 5 4.3 17:37:11 10° ESE 17:40:46 20° ENE 17:44:27 10° NNE
NOSS 3-4 (A) 4.5 17:35:50 10° NW 17:42:29 62° SW 17:50:19 10° SSE
Spot 4 Rocket 4.0 17:37:27 10° SSE 17:42:30 66° ENE 17:47:34 10° N
NOSS 3-4 (C) 4.5 17:36:07 10° NW 17:42:48 62° SW 17:50:39 10° SSE
ARIANE 6 FM1 Upper Stage 2.5 17:39:17 10° NW 17:43:15 81° NE 17:47:14 10° SE
Orbus 7S? 4.4 17:33:51 10° WNW 17:43:17 83° SW 17:47:18 10° SE
Cosmos 2227 Rocket 2.2 17:39:13 10° SSW 17:44:49 72° ESE 17:50:28 10° NNE
ARIANE 5 R/B 3.8 17:40:16 10° S 17:45:08 45° W 17:49:58 10° NNW
NOAA 6 4.1 17:41:50 10° SSE 17:46:53 60° ENE 17:51:59 10° N
SJ-6B 3.4 17:45:20 10° SE 17:48:16 27° ENE 17:51:15 10° N
SL-16 R/B 2.2 17:43:58 10° NNW 17:49:39 73° ENE 17:55:19 10° SE
Terra 3.8 17:50:53 10° NE 17:51:05 10° NE 17:51:39 10° NE
Cosmos 2208 Rocket 4.2 17:47:40 10° SSW 17:52:57 80° WNW 17:58:20 10° NNE
Cosmos 44 Rocket 3.9 17:50:33 10° SW 17:55:27 60° NW 18:00:32 10° NE
SL-19 R/B 4.4 17:50:09 10° SSE 17:56:09 70° ENE 18:01:52 10° NNW
Meteor 2-17 Rocket 4.4 17:50:44 10° S 17:56:46 81° E 18:02:51 10° NNE
Lacrosse 5 rocket 2.4 17:54:55 10° NW 17:57:56 25° N 17:59:58 16° NE
ATLAS 2AS CENTAUR R/B 4.1 17:54:23 10° NW 17:59:50 24° N 18:04:58 11° NE
CZ-4 R/B 2.8 18:02:23 17° ENE 18:02:23 17° ENE 18:04:40 10° NNE
CZ-2D R/B 3.6 17:59:12 10° S 18:03:09 72° WSW 18:07:14 10° NNW
Cosmos 1816 Rocket 4.4 17:58:43 10° S 18:04:49 66° E 18:11:02 10° NNE
CSL-04 Rocket 4.2 18:05:29 11° SE 18:09:58 34° ENE 18:14:40 10° N
ERS-1 Rocket 4.4 18:11:22 18° ENE 18:11:49 18° ENE 18:15:09 10° NNE
Cosmos 1844 Rocket 4.3 18:09:05 10° SE 18:10:48 15° ESE 18:10:48 15° ESE
USA 267 3.3 18:06:30 12° ENE 18:12:45 83° NNW 18:19:18 10° WSW
SeaSat 1 3.3 18:09:40 10° SSE 18:14:26 53° WSW 18:19:15 10° NW
PSLV R/B 3.6 18:10:59 10° S 18:15:04 75° WSW 18:19:09 10° NNW
Cosmos 2034 Rocket 3.9 18:09:20 10° N 18:15:32 73° E 18:21:45 10° SSE
TSX-5 4.2 18:10:34 10° NW 18:15:35 79° WSW 18:19:38 10° SSE
CZ-4B R/B 4.3 18:15:23 21° ENE 18:16:24 22° ENE 18:20:22 10° N
Cosmos 1933 3.7 18:13:38 10° N 18:17:13 36° ENE 18:18:47 25° ESE
CARTOSAT-1 3.7 18:13:18 10° S 18:17:28 71° WSW 18:21:42 10° NNW
Cosmos 1634 Rocket 4.3 18:11:59 10° N 18:18:03 46° ENE 18:24:02 10° SE
Cosmos 2228 3.8 18:15:14 10° NNW 18:19:20 52° W 18:23:25 10° S
Iridium 4 Rocket 4.1 18:15:42 10° NNE 18:19:16 24° ENE 18:19:16 24° ENE
COSMO-SKYMED 1 2.8 18:18:06 10° N 18:22:12 67° WNW 18:26:16 10° SSW
Gbstr 26 Del rocket 4.3 18:16:26 10° SW 18:23:08 74° SSE 18:28:25 22° ENE
Cosmos 2297 Rocket 3.9 18:24:18 10° WSW 18:29:18 31° NW 18:34:20 10° NNE
MINOTAUR IV R/B 4.5 18:25:05 10° SSW 18:29:30 88° ESE 18:33:59 10° NNE
Cosmos 1346 Rocket 3.4 18:27:42 10° SSW 18:31:15 52° WNW 18:34:50 10° N
Cosmos 1943 3.2 18:26:02 10° NNW 18:31:43 61° ENE 18:35:25 22° SE
Cosmos 2279 Rocket 4.3 18:27:17 10° N 18:33:08 41° ENE 18:36:48 21° SE
ATLAS CENTAUR R/B 1.3 18:36:37 10° NNW 18:38:38 37° N 18:38:38 37° N
RESURS DK-1 2.1 18:36:57 10° NNW 18:40:55 69° ENE 18:41:54 47° ESE
Cosmos 1782 4.4 18:38:00 10° NNW 18:41:14 32° W 18:44:27 10° SSW
Cosmos 2098 Rocket 2.2 18:38:38 10° N 18:41:49 72° E 18:42:25 55° SE
Cosmos 1536 Rocket 3.4 18:39:53 10° S 18:44:10 63° E 18:48:32 10° NNE
CZ-4B R/B 3.6 18:45:49 49° SE 18:46:41 67° ENE 18:50:28 10° N
Cosmos 2263 Rocket 2.5 18:42:47 10° SW 18:48:26 67° WNW 18:54:08 10° NNE
Meteor 2-3 Rocket 4.0 18:45:12 10° SSE 18:50:32 44° E 18:55:57 10° NNE
Resurs 01 Rocket 2.7 18:46:32 10° S 18:50:44 44° W 18:54:59 10° NNW
Cosmos 1606 Rocket 3.5 18:46:31 10° N 18:50:49 56° ENE 18:51:12 54° E
USA 234 4.3 18:44:43 10° SSE 18:50:50 41° SW 18:57:00 10° WNW
Cosmos 2219 3.1 18:45:46 10° SSW 18:51:32 87° ESE 18:57:19 10° NNE
Cosmos 1603 4.0 18:47:05 10° NNW 18:52:30 45° NE 18:53:31 41° E
Cosmos 2058 3.7 18:48:59 10° SSW 18:52:45 49° WNW 18:56:34 10° N
Cosmos 972 4.5 18:48:06 10° NNW 18:52:57 54° ENE 18:53:58 46° ESE
Tiangong 0.6 18:53:15 10° SW 18:54:35 12° SSW 18:54:50 12° SSW
Cosmos 1538 Rocket 3.9 18:50:26 10° SSW 18:55:45 70° ESE 19:01:00 10° NNE
CZ-4C R/B 4.0 18:52:11 10° WNW 18:56:18 22° N 19:00:15 13° NE
Cosmos 1862 4.4 18:58:13 10° SW 19:01:35 38° WNW 19:04:58 10° N
Cosmos 2056 Rocket 4.0 19:01:47 10° NNW 19:06:22 41° NE 19:06:22 41° NE
Helios 1A Rocket 4.0 19:09:44 28° SW 19:09:44 28° SW 19:11:27 10° SSW
Cosmos 1833 Rocket 4.2 19:05:14 10° N 19:08:54 20° NNE 19:08:54 20° NNE
Meteor 1-31 Rocket 3.4 19:13:41 47° NW 19:13:41 47° NW 19:16:23 10° NNW
Okean O Rocket 3.8 19:15:59 15° NNE 19:15:59 15° NNE 19:16:56 10° N
MetOp-B 4.2 19:14:23 54° ENE 19:14:23 54° ENE 19:19:23 10° N
Cosmos 2082 3.8 19:10:53 10° SSW 19:16:36 76° WNW 19:21:37 14° NNE
SPOT 5 3.1 19:15:25 28° S 19:18:05 74° WSW 19:23:19 10° NNW
Cosmos 2084 4.3 19:14:48 10° WSW 19:18:48 44° NW 19:19:31 40° N
Meteor 2-12 Rocket 4.5 19:18:16 10° SSW 19:24:23 80° W 19:30:35 10° N
Terra 2.9 19:29:30 35° N 19:29:30 35° N 19:32:19 10° N
MOS 1 4.1 19:28:16 73° ESE 19:28:43 78° ENE 19:34:25 10° NNW
Cosmos 2227 Rocket 4.1 19:24:42 10° W 19:29:24 26° NW 19:34:09 10° NNE
PAYLOAD B 4.1 19:29:23 62° SSE 19:30:24 89° WSW 19:36:03 10° NNW
Cosmos 1624 Rocket 4.5 19:27:37 10° NNW 19:31:45 50° NNE 19:31:45 50° NNE
COBE Rocket 4.1 19:29:04 10° N 19:37:33 16° SSW 19:38:29 10° SSW
ADEOS 3.6 19:34:57 72° N 19:34:57 72° N 19:39:39 10° NNW
Lacrosse 5 rocket 3.0 19:31:42 10° NW 19:33:23 25° NW 19:33:23 25° NW
CZ-4 R/B 2.9 19:37:23 30° NW 19:37:23 30° NW 19:39:36 10° NNW
Cosmos 2344 3.9 19:34:38 10° WSW 19:42:02 58° NW 19:46:52 22° NE
BREEZE M DEB (TANK) 4.1 19:36:32 10° SW 19:47:43 48° S 19:47:43 48° S
ERS-1 Rocket 3.6 19:51:13 50° NNW 19:51:13 50° NNW 19:54:57 10° NNW
ATLAS 2AS CENTAUR R/B 3.4 19:46:17 10° NW 19:52:23 39° NNE 19:52:23 39° NNE
Cosmos 2180 Rocket 4.5 19:48:09 10° NNW 19:54:23 77° W 19:54:50 73° SW
USA 267 3.9 19:53:50 41° NNE 19:55:26 49° N 20:01:40 10° W
Cosmos 1844 Rocket 4.0 19:49:57 10° SSW 19:52:35 29° SSW 19:52:35 29° SSW
CZ-4B R/B 3.5 19:57:14 60° NW 19:57:14 60° NW 20:01:47 10° NNW
Cosmos 44 4.4 19:55:22 10° NW 19:59:02 43° NNW 19:59:02 43° NNW
Gbstr 26 Del rocket 4.3 20:03:01 10° W 20:10:14 75° N 20:10:26 75° N
Cosmos 2082 Rocket 4.4 20:12:29 10° N 20:14:12 15° N 20:14:12 15° N
CZ-4C R/B 4.2 20:41:34 10° NW 20:45:11 25° N 20:45:11 25° N
ATLAS 2AS CENTAUR R/B 4.5 21:37:15 10° NW 21:39:48 25° NW 21:39:48 25° NW
